Jitianxing A-05 xing

operational
NORAD ID: 62733 Int'l Des: NNA 2025-013 Owner: JTXZ Country: CN
LEOCIRCULARRETROGRADESSO

Über Jitianxing A-05 xing

Beschreibung wird geladen...

Live-Position

3D-Globus wird geladen...

Nächste Überflüge

Höhenverlauf

Altitude vs Time

uPlot chart will show altitude changes over time

Zweizeiliger Elementsatz

1 62733U 25013E 26062.17581080 .00004703 00000-0 29109-3 0 9996
2 62733 97.6453 231.5601 0009074 29.3557 330.8180 15.10264432 61217
Epoch: 3. März 2026 • Age: 27 hours

Aktueller Status

Höhe 546.6 km
Geschwindigkeit 7.60 km/s
Subsatellitenpunkt 69.62°N, 132.75°W
Startdatum 20. Jan. 2025
Alter 1.1 years
Typ other

Technische Details

Klassifizierung Payload
Masse 50.00 kg
Trockenmasse 50.00 kg
Gesamtmasse 50.00 kg
Länge 2.00 m
Durchmesser 1.50 m
Spannweite 5.00 m
Form Box + pan
Hersteller ZKRG
Bus-Typ Xingyun-01
Phasenstatus In Orbit
Besitzer/Staat JTXZ/CN

Große Konstellationen

Loading constellations...